#datetime,building,power
2022-02-16T00:00:00,sdl,14.69
2022-02-16T00:01:00,sdl,14.76
2022-02-16T00:02:00,sdl,15.47
2022-02-16T00:03:00,sdl,10.89
2022-02-16T00:04:00,sdl,10.89
2022-02-16T00:05:00,sdl,9.71
2022-02-16T00:06:00,sdl,9.67
2022-02-16T00:07:00,sdl,9.75
2022-02-16T00:08:00,sdl,15.07
2022-02-16T00:09:00,sdl,15.17
2022-02-16T00:10:00,sdl,15.66
2022-02-16T00:11:00,sdl,15.44
2022-02-16T00:12:00,sdl,15.61
2022-02-16T00:13:00,sdl,16.04
2022-02-16T00:14:00,sdl,15.90
2022-02-16T00:15:00,sdl,16.25
2022-02-16T00:16:00,sdl,16.62
2022-02-16T00:17:00,sdl,16.30
2022-02-16T00:18:00,sdl,16.00
2022-02-16T00:19:00,sdl,19.25
2022-02-16T00:20:00,sdl,18.89
2022-02-16T00:21:00,sdl,18.73
2022-02-16T00:22:00,sdl,18.77
2022-02-16T00:23:00,sdl,18.91
2022-02-16T00:24:00,sdl,19.00
2022-02-16T00:25:00,sdl,19.21
2022-02-16T00:26:00,sdl,19.05
2022-02-16T00:27:00,sdl,19.04
2022-02-16T00:28:00,sdl,19.27
2022-02-16T00:29:00,sdl,19.18
2022-02-16T00:30:00,sdl,19.13
2022-02-16T00:31:00,sdl,19.18
2022-02-16T00:32:00,sdl,17.07
2022-02-16T00:33:00,sdl,16.79
2022-02-16T00:34:00,sdl,16.95
2022-02-16T00:35:00,sdl,16.92
2022-02-16T00:36:00,sdl,17.12
2022-02-16T00:37:00,sdl,17.57
2022-02-16T00:38:00,sdl,17.58
2022-02-16T00:39:00,sdl,17.00
2022-02-16T00:40:00,sdl,17.48
2022-02-16T00:41:00,sdl,16.88
2022-02-16T00:42:00,sdl,17.46
2022-02-16T00:43:00,sdl,17.10
2022-02-16T00:44:00,sdl,17.00
2022-02-16T00:45:00,sdl,16.82
2022-02-16T00:46:00,sdl,16.93
2022-02-16T00:47:00,sdl,17.27
2022-02-16T00:48:00,sdl,18.14
2022-02-16T00:49:00,sdl,17.85
2022-02-16T00:50:00,sdl,17.22
2022-02-16T00:51:00,sdl,18.46
2022-02-16T00:52:00,sdl,13.16
2022-02-16T00:53:00,sdl,13.61
2022-02-16T00:54:00,sdl,13.61
2022-02-16T00:55:00,sdl,15.40
2022-02-16T00:56:00,sdl,15.39
2022-02-16T00:57:00,sdl,15.42
2022-02-16T00:58:00,sdl,15.41
2022-02-16T00:59:00,sdl,11.67
2022-02-16T01:00:00,sdl,11.17
2022-02-16T01:01:00,sdl,11.45
2022-02-16T01:02:00,sdl,10.96
2022-02-16T01:03:00,sdl,10.41
2022-02-16T01:04:00,sdl,10.51
2022-02-16T01:05:00,sdl,10.47
2022-02-16T01:06:00,sdl,10.50
2022-02-16T01:07:00,sdl,10.50
2022-02-16T01:08:00,sdl,10.52
2022-02-16T01:09:00,sdl,10.51
2022-02-16T01:10:00,sdl,8.21
2022-02-16T01:11:00,sdl,13.87
2022-02-16T01:12:00,sdl,12.54
2022-02-16T01:13:00,sdl,12.49
2022-02-16T01:14:00,sdl,12.45
2022-02-16T01:15:00,sdl,12.44
2022-02-16T01:16:00,sdl,12.35
2022-02-16T01:17:00,sdl,12.46
2022-02-16T01:18:00,sdl,8.21
2022-02-16T01:19:00,sdl,8.15
2022-02-16T01:20:00,sdl,8.22
2022-02-16T01:21:00,sdl,8.26
2022-02-16T01:22:00,sdl,8.12
2022-02-16T01:23:00,sdl,8.19
2022-02-16T01:24:00,sdl,8.12
2022-02-16T01:25:00,sdl,8.52
2022-02-16T01:26:00,sdl,10.80
2022-02-16T01:27:00,sdl,10.36
2022-02-16T01:28:00,sdl,10.34
2022-02-16T01:29:00,sdl,10.58
2022-02-16T01:30:00,sdl,11.66
2022-02-16T01:31:00,sdl,10.98
2022-02-16T01:32:00,sdl,10.49
2022-02-16T01:33:00,sdl,10.86
2022-02-16T01:34:00,sdl,15.02
2022-02-16T01:35:00,sdl,15.09
2022-02-16T01:36:00,sdl,12.89
2022-02-16T01:37:00,sdl,12.86
2022-02-16T01:38:00,sdl,12.89
2022-02-16T01:39:00,sdl,13.73
2022-02-16T01:40:00,sdl,18.32
2022-02-16T01:41:00,sdl,14.27
2022-02-16T01:42:00,sdl,14.18
2022-02-16T01:43:00,sdl,14.19
2022-02-16T01:44:00,sdl,14.53
2022-02-16T01:45:00,sdl,14.94
2022-02-16T01:46:00,sdl,15.29
2022-02-16T01:47:00,sdl,15.69
2022-02-16T01:48:00,sdl,15.96
2022-02-16T01:49:00,sdl,14.15
2022-02-16T01:50:00,sdl,8.30
2022-02-16T01:51:00,sdl,8.28
2022-02-16T01:52:00,sdl,10.56
2022-02-16T01:53:00,sdl,11.18
2022-02-16T01:54:00,sdl,11.08
2022-02-16T01:55:00,sdl,10.94
2022-02-16T01:56:00,sdl,10.97
2022-02-16T01:57:00,sdl,10.72
2022-02-16T01:58:00,sdl,10.61
2022-02-16T01:59:00,sdl,14.86
2022-02-16T02:00:00,sdl,14.80
2022-02-16T02:01:00,sdl,15.52
2022-02-16T02:02:00,sdl,14.86
2022-02-16T02:03:00,sdl,15.04
2022-02-16T02:04:00,sdl,15.01
2022-02-16T02:05:00,sdl,15.12
2022-02-16T02:06:00,sdl,15.02
2022-02-16T02:07:00,sdl,15.08
2022-02-16T02:08:00,sdl,15.05
2022-02-16T02:09:00,sdl,12.87
2022-02-16T02:10:00,sdl,12.77
2022-02-16T02:11:00,sdl,12.81
2022-02-16T02:12:00,sdl,12.78
2022-02-16T02:13:00,sdl,12.89
2022-02-16T02:14:00,sdl,12.83
2022-02-16T02:15:00,sdl,12.89
2022-02-16T02:16:00,sdl,12.87
2022-02-16T02:17:00,sdl,12.97
2022-02-16T02:18:00,sdl,13.50
2022-02-16T02:19:00,sdl,13.38
2022-02-16T02:20:00,sdl,13.24
2022-02-16T02:21:00,sdl,14.51
2022-02-16T02:22:00,sdl,13.14
2022-02-16T02:23:00,sdl,13.11
2022-02-16T02:24:00,sdl,13.08
2022-02-16T02:25:00,sdl,13.10
2022-02-16T02:26:00,sdl,13.17
2022-02-16T02:27:00,sdl,13.50
2022-02-16T02:28:00,sdl,13.94
2022-02-16T02:29:00,sdl,13.13
2022-02-16T02:30:00,sdl,13.10
2022-02-16T02:31:00,sdl,13.12
2022-02-16T02:32:00,sdl,13.21
2022-02-16T02:33:00,sdl,13.21
2022-02-16T02:34:00,sdl,13.12
2022-02-16T02:35:00,sdl,12.61
2022-02-16T02:36:00,sdl,14.72
2022-02-16T02:37:00,sdl,14.77
2022-02-16T02:38:00,sdl,14.71
2022-02-16T02:39:00,sdl,14.73
2022-02-16T02:40:00,sdl,14.64
2022-02-16T02:41:00,sdl,14.64
2022-02-16T02:42:00,sdl,14.74
2022-02-16T02:43:00,sdl,19.43
2022-02-16T02:44:00,sdl,20.28
2022-02-16T02:45:00,sdl,20.21
2022-02-16T02:46:00,sdl,20.35
2022-02-16T02:47:00,sdl,20.49
2022-02-16T02:48:00,sdl,20.96
2022-02-16T02:49:00,sdl,19.60
2022-02-16T02:50:00,sdl,19.37
2022-02-16T02:51:00,sdl,20.57
2022-02-16T02:52:00,sdl,20.08
2022-02-16T02:53:00,sdl,17.99
2022-02-16T02:54:00,sdl,12.53
2022-02-16T02:55:00,sdl,12.57
2022-02-16T02:56:00,sdl,12.55
2022-02-16T02:57:00,sdl,12.55
2022-02-16T02:58:00,sdl,12.86
2022-02-16T02:59:00,sdl,12.75
2022-02-16T03:00:00,sdl,12.50
2022-02-16T03:01:00,sdl,13.12
2022-02-16T03:02:00,sdl,14.75
2022-02-16T03:03:00,sdl,14.77
2022-02-16T03:04:00,sdl,14.72
2022-02-16T03:05:00,sdl,14.72
2022-02-16T03:06:00,sdl,15.13
2022-02-16T03:07:00,sdl,15.11
2022-02-16T03:08:00,sdl,15.25
2022-02-16T03:09:00,sdl,15.23
2022-02-16T03:10:00,sdl,15.14
2022-02-16T03:11:00,sdl,15.23
2022-02-16T03:12:00,sdl,15.21
2022-02-16T03:13:00,sdl,15.13
2022-02-16T03:14:00,sdl,15.19
2022-02-16T03:15:00,sdl,12.97
2022-02-16T03:16:00,sdl,12.97
2022-02-16T03:17:00,sdl,13.68
2022-02-16T03:18:00,sdl,13.00
2022-02-16T03:19:00,sdl,12.98
2022-02-16T03:20:00,sdl,12.95
2022-02-16T03:21:00,sdl,12.97
2022-02-16T03:22:00,sdl,12.56
2022-02-16T03:23:00,sdl,12.52
2022-02-16T03:24:00,sdl,12.49
2022-02-16T03:25:00,sdl,12.51
2022-02-16T03:26:00,sdl,13.04
2022-02-16T03:27:00,sdl,12.49
2022-02-16T03:28:00,sdl,12.49
2022-02-16T03:29:00,sdl,13.11
2022-02-16T03:30:00,sdl,13.11
2022-02-16T03:31:00,sdl,12.74
2022-02-16T03:32:00,sdl,12.83
2022-02-16T03:33:00,sdl,12.75
2022-02-16T03:34:00,sdl,12.71
2022-02-16T03:35:00,sdl,12.65
2022-02-16T03:36:00,sdl,14.74
2022-02-16T03:37:00,sdl,14.74
2022-02-16T03:38:00,sdl,14.77
2022-02-16T03:39:00,sdl,14.75
2022-02-16T03:40:00,sdl,14.71
2022-02-16T03:41:00,sdl,14.95
2022-02-16T03:42:00,sdl,14.86
2022-02-16T03:43:00,sdl,14.94
2022-02-16T03:44:00,sdl,14.91
2022-02-16T03:45:00,sdl,14.86
2022-02-16T03:46:00,sdl,14.87
2022-02-16T03:47:00,sdl,15.50
2022-02-16T03:48:00,sdl,14.79
2022-02-16T03:49:00,sdl,14.72
2022-02-16T03:50:00,sdl,14.74
2022-02-16T03:51:00,sdl,14.70
2022-02-16T03:52:00,sdl,15.59
2022-02-16T03:53:00,sdl,18.53
2022-02-16T03:54:00,sdl,18.56
2022-02-16T03:55:00,sdl,18.50
2022-02-16T03:56:00,sdl,18.64
2022-02-16T03:57:00,sdl,19.26
2022-02-16T03:58:00,sdl,19.50
2022-02-16T03:59:00,sdl,19.84
2022-02-16T04:00:00,sdl,20.54
2022-02-16T04:01:00,sdl,21.51
2022-02-16T04:02:00,sdl,13.43
2022-02-16T04:03:00,sdl,12.96
2022-02-16T04:04:00,sdl,13.04
2022-02-16T04:05:00,sdl,13.02
2022-02-16T04:06:00,sdl,13.14
2022-02-16T04:07:00,sdl,13.15
2022-02-16T04:08:00,sdl,13.20
2022-02-16T04:09:00,sdl,12.79
2022-02-16T04:10:00,sdl,12.82
2022-02-16T04:11:00,sdl,14.96
2022-02-16T04:12:00,sdl,15.08
2022-02-16T04:13:00,sdl,14.75
2022-02-16T04:14:00,sdl,14.77
2022-02-16T04:15:00,sdl,14.67
2022-02-16T04:16:00,sdl,14.74
2022-02-16T04:17:00,sdl,14.66
2022-02-16T04:18:00,sdl,15.37
2022-02-16T04:19:00,sdl,14.68
2022-02-16T04:20:00,sdl,14.67
2022-02-16T04:21:00,sdl,12.47
2022-02-16T04:22:00,sdl,12.42
2022-02-16T04:23:00,sdl,12.39
2022-02-16T04:24:00,sdl,12.34
2022-02-16T04:25:00,sdl,12.40
2022-02-16T04:26:00,sdl,12.41
2022-02-16T04:27:00,sdl,12.33
2022-02-16T04:28:00,sdl,12.35
2022-02-16T04:29:00,sdl,12.55
2022-02-16T04:30:00,sdl,12.69
2022-02-16T04:31:00,sdl,12.54
2022-02-16T04:32:00,sdl,12.98
2022-02-16T04:33:00,sdl,12.93
2022-02-16T04:34:00,sdl,12.94
2022-02-16T04:35:00,sdl,14.69
2022-02-16T04:36:00,sdl,15.22
2022-02-16T04:37:00,sdl,14.65
2022-02-16T04:38:00,sdl,14.67
2022-02-16T04:39:00,sdl,15.19
2022-02-16T04:40:00,sdl,15.12
2022-02-16T04:41:00,sdl,15.11
2022-02-16T04:42:00,sdl,15.23
2022-02-16T04:43:00,sdl,15.18
2022-02-16T04:44:00,sdl,15.36
2022-02-16T04:45:00,sdl,15.27
2022-02-16T04:46:00,sdl,15.28
2022-02-16T04:47:00,sdl,15.14
2022-02-16T04:48:00,sdl,14.79
2022-02-16T04:49:00,sdl,14.81
2022-02-16T04:50:00,sdl,16.01
2022-02-16T04:51:00,sdl,14.68
2022-02-16T04:52:00,sdl,15.27
2022-02-16T04:53:00,sdl,12.56
2022-02-16T04:54:00,sdl,12.64
2022-02-16T04:55:00,sdl,12.61
2022-02-16T04:56:00,sdl,12.61
2022-02-16T04:57:00,sdl,12.65
2022-02-16T04:58:00,sdl,12.64
2022-02-16T04:59:00,sdl,13.01
2022-02-16T05:00:00,sdl,12.98
2022-02-16T05:01:00,sdl,12.48
2022-02-16T05:02:00,sdl,12.52
2022-02-16T05:03:00,sdl,12.87
2022-02-16T05:04:00,sdl,18.25
2022-02-16T05:05:00,sdl,18.51
2022-02-16T05:06:00,sdl,18.83
2022-02-16T05:07:00,sdl,18.92
2022-02-16T05:08:00,sdl,19.28
2022-02-16T05:09:00,sdl,19.21
2022-02-16T05:10:00,sdl,20.03
2022-02-16T05:11:00,sdl,19.79
2022-02-16T05:12:00,sdl,20.21
2022-02-16T05:13:00,sdl,19.58
2022-02-16T05:14:00,sdl,18.23
2022-02-16T05:15:00,sdl,18.24
2022-02-16T05:16:00,sdl,12.85
2022-02-16T05:17:00,sdl,12.86
2022-02-16T05:18:00,sdl,13.05
2022-02-16T05:19:00,sdl,12.99
2022-02-16T05:20:00,sdl,14.79
2022-02-16T05:21:00,sdl,15.70
2022-02-16T05:22:00,sdl,15.81
2022-02-16T05:23:00,sdl,15.06
2022-02-16T05:24:00,sdl,16.28
2022-02-16T05:25:00,sdl,15.01
2022-02-16T05:26:00,sdl,15.00
2022-02-16T05:27:00,sdl,15.02
2022-02-16T05:28:00,sdl,14.81
2022-02-16T05:29:00,sdl,14.77
2022-02-16T05:30:00,sdl,14.86
2022-02-16T05:31:00,sdl,14.86
2022-02-16T05:32:00,sdl,14.86
2022-02-16T05:33:00,sdl,14.84
2022-02-16T05:34:00,sdl,14.90
2022-02-16T05:35:00,sdl,12.67
2022-02-16T05:36:00,sdl,12.65
2022-02-16T05:37:00,sdl,12.60
2022-02-16T05:38:00,sdl,12.67
2022-02-16T05:39:00,sdl,12.59
2022-02-16T05:40:00,sdl,12.45
2022-02-16T05:41:00,sdl,12.60
2022-02-16T05:42:00,sdl,12.54
2022-02-16T05:43:00,sdl,13.19
2022-02-16T05:44:00,sdl,12.93
2022-02-16T05:45:00,sdl,13.02
2022-02-16T05:46:00,sdl,13.59
2022-02-16T05:47:00,sdl,13.01
2022-02-16T05:48:00,sdl,12.91
2022-02-16T05:49:00,sdl,15.10
2022-02-16T05:50:00,sdl,15.31
2022-02-16T05:51:00,sdl,15.09
2022-02-16T05:52:00,sdl,15.20
2022-02-16T05:53:00,sdl,15.34
2022-02-16T05:54:00,sdl,15.23
2022-02-16T05:55:00,sdl,15.21
2022-02-16T05:56:00,sdl,15.16
2022-02-16T05:57:00,sdl,15.21
2022-02-16T05:58:00,sdl,15.17
2022-02-16T05:59:00,sdl,15.34
2022-02-16T06:00:00,sdl,13.12
2022-02-16T06:01:00,sdl,12.91
2022-02-16T06:02:00,sdl,12.83
2022-02-16T06:03:00,sdl,12.79
2022-02-16T06:04:00,sdl,12.84
2022-02-16T06:05:00,sdl,12.81
2022-02-16T06:06:00,sdl,12.72
2022-02-16T06:07:00,sdl,12.68
2022-02-16T06:08:00,sdl,12.71
2022-02-16T06:09:00,sdl,12.77
2022-02-16T06:10:00,sdl,12.70
2022-02-16T06:11:00,sdl,12.51
2022-02-16T06:12:00,sdl,12.57
2022-02-16T06:13:00,sdl,12.93
2022-02-16T06:14:00,sdl,12.96
2022-02-16T06:15:00,sdl,13.04
2022-02-16T06:16:00,sdl,12.31
2022-02-16T06:17:00,sdl,16.53
2022-02-16T06:18:00,sdl,18.40
2022-02-16T06:19:00,sdl,20.28
2022-02-16T06:20:00,sdl,20.21
2022-02-16T06:21:00,sdl,20.24
2022-02-16T06:22:00,sdl,20.70
2022-02-16T06:23:00,sdl,21.06
2022-02-16T06:24:00,sdl,21.51
2022-02-16T06:25:00,sdl,21.79
2022-02-16T06:26:00,sdl,22.05
2022-02-16T06:27:00,sdl,20.04
2022-02-16T06:28:00,sdl,14.89
2022-02-16T06:29:00,sdl,14.90
2022-02-16T06:30:00,sdl,14.92
2022-02-16T06:31:00,sdl,14.98
2022-02-16T06:32:00,sdl,15.05
2022-02-16T06:33:00,sdl,15.02
2022-02-16T06:34:00,sdl,15.09
2022-02-16T06:35:00,sdl,15.08
2022-02-16T06:36:00,sdl,15.03
2022-02-16T06:37:00,sdl,15.02
2022-02-16T06:38:00,sdl,12.77
2022-02-16T06:39:00,sdl,12.75
2022-02-16T06:40:00,sdl,12.72
2022-02-16T06:41:00,sdl,12.72
2022-02-16T06:42:00,sdl,13.07
2022-02-16T06:43:00,sdl,12.74
2022-02-16T06:44:00,sdl,12.13
2022-02-16T06:45:00,sdl,12.12
2022-02-16T06:46:00,sdl,12.20
2022-02-16T06:47:00,sdl,12.05
2022-02-16T06:48:00,sdl,12.12
2022-02-16T06:49:00,sdl,13.81
2022-02-16T06:50:00,sdl,12.07
2022-02-16T06:51:00,sdl,12.04
2022-02-16T06:52:00,sdl,12.05
2022-02-16T06:53:00,sdl,12.16
2022-02-16T06:54:00,sdl,12.17
2022-02-16T06:55:00,sdl,12.20
2022-02-16T06:56:00,sdl,12.15
2022-02-16T06:57:00,sdl,12.18
2022-02-16T06:58:00,sdl,12.13
2022-02-16T06:59:00,sdl,12.02
2022-02-16T07:00:00,sdl,12.16
2022-02-16T07:01:00,sdl,12.16
2022-02-16T07:02:00,sdl,12.35
2022-02-16T07:03:00,sdl,12.16
2022-02-16T07:04:00,sdl,12.16
2022-02-16T07:05:00,sdl,12.17
2022-02-16T07:06:00,sdl,14.34
2022-02-16T07:07:00,sdl,14.41
2022-02-16T07:08:00,sdl,14.48
2022-02-16T07:09:00,sdl,14.50
2022-02-16T07:10:00,sdl,14.49
2022-02-16T07:11:00,sdl,14.34
2022-02-16T07:12:00,sdl,14.85
2022-02-16T07:13:00,sdl,15.38
2022-02-16T07:14:00,sdl,15.45
2022-02-16T07:15:00,sdl,15.10
2022-02-16T07:16:00,sdl,15.15
2022-02-16T07:17:00,sdl,16.26
2022-02-16T07:18:00,sdl,15.16
2022-02-16T07:19:00,sdl,15.03
2022-02-16T07:20:00,sdl,15.00
2022-02-16T07:21:00,sdl,13.37
2022-02-16T07:22:00,sdl,13.79
2022-02-16T07:23:00,sdl,18.40
2022-02-16T07:24:00,sdl,18.28
2022-02-16T07:25:00,sdl,18.23
2022-02-16T07:26:00,sdl,18.33
2022-02-16T07:27:00,sdl,18.74
2022-02-16T07:28:00,sdl,19.05
2022-02-16T07:29:00,sdl,18.99
2022-02-16T07:30:00,sdl,19.45
2022-02-16T07:31:00,sdl,19.67
2022-02-16T07:32:00,sdl,17.73
2022-02-16T07:33:00,sdl,12.29
2022-02-16T07:34:00,sdl,12.30
2022-02-16T07:35:00,sdl,14.45
2022-02-16T07:36:00,sdl,14.39
2022-02-16T07:37:00,sdl,14.50
2022-02-16T07:38:00,sdl,14.52
2022-02-16T07:39:00,sdl,14.43
2022-02-16T07:40:00,sdl,14.44
2022-02-16T07:41:00,sdl,14.46
2022-02-16T07:42:00,sdl,14.53
2022-02-16T07:43:00,sdl,14.53
2022-02-16T07:44:00,sdl,14.57
2022-02-16T07:45:00,sdl,14.51
2022-02-16T07:46:00,sdl,14.82
2022-02-16T07:47:00,sdl,12.53
2022-02-16T07:48:00,sdl,12.19
2022-02-16T07:49:00,sdl,12.13
2022-02-16T07:50:00,sdl,12.19
2022-02-16T07:51:00,sdl,12.17
2022-02-16T07:52:00,sdl,12.18
2022-02-16T07:53:00,sdl,12.23
2022-02-16T07:54:00,sdl,12.73
2022-02-16T07:55:00,sdl,12.73
2022-02-16T07:56:00,sdl,12.26
2022-02-16T07:57:00,sdl,12.24
2022-02-16T07:58:00,sdl,12.62
2022-02-16T07:59:00,sdl,12.52
2022-02-16T08:00:00,sdl,12.49
2022-02-16T08:01:00,sdl,12.49
2022-02-16T08:02:00,sdl,12.49
2022-02-16T08:03:00,sdl,12.48
2022-02-16T08:04:00,sdl,12.46
2022-02-16T08:05:00,sdl,12.46
2022-02-16T08:06:00,sdl,12.52
2022-02-16T08:07:00,sdl,12.55
2022-02-16T08:08:00,sdl,14.82
2022-02-16T08:09:00,sdl,14.79
2022-02-16T08:10:00,sdl,14.76
2022-02-16T08:11:00,sdl,14.70
2022-02-16T08:12:00,sdl,14.77
2022-02-16T08:13:00,sdl,14.41
2022-02-16T08:14:00,sdl,14.84
2022-02-16T08:15:00,sdl,14.90
2022-02-16T08:16:00,sdl,15.64
2022-02-16T08:17:00,sdl,14.57
2022-02-16T08:18:00,sdl,14.54
2022-02-16T08:19:00,sdl,14.55
2022-02-16T08:20:00,sdl,14.54
2022-02-16T08:21:00,sdl,14.56
2022-02-16T08:22:00,sdl,14.58
2022-02-16T08:23:00,sdl,14.49
2022-02-16T08:24:00,sdl,14.53
2022-02-16T08:25:00,sdl,12.34
2022-02-16T08:26:00,sdl,17.75
2022-02-16T08:27:00,sdl,18.16
2022-02-16T08:28:00,sdl,19.02
2022-02-16T08:29:00,sdl,18.58
2022-02-16T08:30:00,sdl,18.87
2022-02-16T08:31:00,sdl,19.24
2022-02-16T08:32:00,sdl,20.21
2022-02-16T08:33:00,sdl,20.07
2022-02-16T08:34:00,sdl,20.35
2022-02-16T08:35:00,sdl,20.26
2022-02-16T08:36:00,sdl,20.29
2022-02-16T08:37:00,sdl,20.52
2022-02-16T08:38:00,sdl,20.89
2022-02-16T08:39:00,sdl,20.97
2022-02-16T08:40:00,sdl,21.38
2022-02-16T08:41:00,sdl,21.19
2022-02-16T08:42:00,sdl,21.58
2022-02-16T08:43:00,sdl,22.38
2022-02-16T08:44:00,sdl,24.39
2022-02-16T08:45:00,sdl,24.34
2022-02-16T08:46:00,sdl,24.30
2022-02-16T08:47:00,sdl,24.57
2022-02-16T08:48:00,sdl,24.57
2022-02-16T08:49:00,sdl,26.40
2022-02-16T08:50:00,sdl,26.22
2022-02-16T08:51:00,sdl,24.48
2022-02-16T08:52:00,sdl,24.46
2022-02-16T08:53:00,sdl,24.77
2022-02-16T08:54:00,sdl,23.57
2022-02-16T08:55:00,sdl,23.28
2022-02-16T08:56:00,sdl,23.14
2022-02-16T08:57:00,sdl,23.11
2022-02-16T08:58:00,sdl,23.23
2022-02-16T08:59:00,sdl,22.67
2022-02-16T09:00:00,sdl,22.96
2022-02-16T09:01:00,sdl,23.26
2022-02-16T09:02:00,sdl,22.83
2022-02-16T09:03:00,sdl,21.87
2022-02-16T09:04:00,sdl,21.94
2022-02-16T09:05:00,sdl,21.90
2022-02-16T09:06:00,sdl,21.96
2022-02-16T09:07:00,sdl,22.77
2022-02-16T09:08:00,sdl,25.35
2022-02-16T09:09:00,sdl,24.55
2022-02-16T09:10:00,sdl,24.36
2022-02-16T09:11:00,sdl,24.12
2022-02-16T09:12:00,sdl,24.04
2022-02-16T09:13:00,sdl,24.50
2022-02-16T09:14:00,sdl,24.53
2022-02-16T09:15:00,sdl,25.18
2022-02-16T09:16:00,sdl,25.17
2022-02-16T09:17:00,sdl,25.13
2022-02-16T09:18:00,sdl,25.01
2022-02-16T09:19:00,sdl,25.29
2022-02-16T09:20:00,sdl,25.35
2022-02-16T09:21:00,sdl,25.27
2022-02-16T09:22:00,sdl,25.38
2022-02-16T09:23:00,sdl,25.43
2022-02-16T09:24:00,sdl,25.42
2022-02-16T09:25:00,sdl,25.07
2022-02-16T09:26:00,sdl,25.22
2022-02-16T09:27:00,sdl,25.14
2022-02-16T09:28:00,sdl,22.74
2022-02-16T09:29:00,sdl,23.05
2022-02-16T09:30:00,sdl,23.09
2022-02-16T09:31:00,sdl,23.22
2022-02-16T09:32:00,sdl,23.55
2022-02-16T09:33:00,sdl,24.24
2022-02-16T09:34:00,sdl,23.83
2022-02-16T09:35:00,sdl,23.81
2022-02-16T09:36:00,sdl,24.12
2022-02-16T09:37:00,sdl,23.53
2022-02-16T09:38:00,sdl,23.69
2022-02-16T09:39:00,sdl,23.83
2022-02-16T09:40:00,sdl,24.68
2022-02-16T09:41:00,sdl,24.72
2022-02-16T09:42:00,sdl,24.72
2022-02-16T09:43:00,sdl,24.75
2022-02-16T09:44:00,sdl,24.17
2022-02-16T09:45:00,sdl,24.77
2022-02-16T09:46:00,sdl,24.65
2022-02-16T09:47:00,sdl,24.13
2022-02-16T09:48:00,sdl,24.05
2022-02-16T09:49:00,sdl,24.69
2022-02-16T09:50:00,sdl,24.28
2022-02-16T09:51:00,sdl,24.25
2022-02-16T09:52:00,sdl,24.50
2022-02-16T09:53:00,sdl,24.48
2022-02-16T09:54:00,sdl,24.43
2022-02-16T09:55:00,sdl,24.64
2022-02-16T09:56:00,sdl,24.29
2022-02-16T09:57:00,sdl,26.62
2022-02-16T09:58:00,sdl,27.05
2022-02-16T09:59:00,sdl,26.49
2022-02-16T10:00:00,sdl,26.71
2022-02-16T10:01:00,sdl,26.66
2022-02-16T10:02:00,sdl,26.69
2022-02-16T10:03:00,sdl,26.81
2022-02-16T10:04:00,sdl,26.77
2022-02-16T10:05:00,sdl,26.46
2022-02-16T10:06:00,sdl,26.45
2022-02-16T10:07:00,sdl,26.50
2022-02-16T10:08:00,sdl,26.36
2022-02-16T10:09:00,sdl,26.79
2022-02-16T10:10:00,sdl,26.93
2022-02-16T10:11:00,sdl,27.05
2022-02-16T10:12:00,sdl,27.37
2022-02-16T10:13:00,sdl,25.06
2022-02-16T10:14:00,sdl,25.52
2022-02-16T10:15:00,sdl,24.91
2022-02-16T10:16:00,sdl,24.96
2022-02-16T10:17:00,sdl,24.96
2022-02-16T10:18:00,sdl,24.75
2022-02-16T10:19:00,sdl,24.89
2022-02-16T10:20:00,sdl,24.70
2022-02-16T10:21:00,sdl,25.18
2022-02-16T10:22:00,sdl,24.76
2022-02-16T10:23:00,sdl,24.91
2022-02-16T10:24:00,sdl,24.36
2022-02-16T10:25:00,sdl,24.72
2022-02-16T10:26:00,sdl,27.15
2022-02-16T10:27:00,sdl,27.07
2022-02-16T10:28:00,sdl,26.73
2022-02-16T10:29:00,sdl,26.55
2022-02-16T10:30:00,sdl,26.33
2022-02-16T10:31:00,sdl,26.30
2022-02-16T10:32:00,sdl,26.32
2022-02-16T10:33:00,sdl,26.28
2022-02-16T10:34:00,sdl,26.23
2022-02-16T10:35:00,sdl,25.82
2022-02-16T10:36:00,sdl,26.23
2022-02-16T10:37:00,sdl,26.40
2022-02-16T10:38:00,sdl,27.09
2022-02-16T10:39:00,sdl,24.60
2022-02-16T10:40:00,sdl,24.70
2022-02-16T10:41:00,sdl,24.51
2022-02-16T10:42:00,sdl,25.07
2022-02-16T10:43:00,sdl,25.19
2022-02-16T10:44:00,sdl,25.11
2022-02-16T10:45:00,sdl,25.93
2022-02-16T10:46:00,sdl,25.96
2022-02-16T10:47:00,sdl,25.43
2022-02-16T10:48:00,sdl,25.27
2022-02-16T10:49:00,sdl,25.96
2022-02-16T10:50:00,sdl,25.89
2022-02-16T10:51:00,sdl,25.39
2022-02-16T10:52:00,sdl,25.37
2022-02-16T10:53:00,sdl,25.29
2022-02-16T10:54:00,sdl,25.21
2022-02-16T10:55:00,sdl,25.25
2022-02-16T10:56:00,sdl,25.09
2022-02-16T10:57:00,sdl,25.19
2022-02-16T10:58:00,sdl,27.33
2022-02-16T10:59:00,sdl,27.14
2022-02-16T11:00:00,sdl,27.31
2022-02-16T11:01:00,sdl,27.27
2022-02-16T11:02:00,sdl,27.20
2022-02-16T11:03:00,sdl,26.79
2022-02-16T11:04:00,sdl,26.88
2022-02-16T11:05:00,sdl,26.79
2022-02-16T11:06:00,sdl,26.60
2022-02-16T11:07:00,sdl,26.78
2022-02-16T11:08:00,sdl,26.67
2022-02-16T11:09:00,sdl,26.83
2022-02-16T11:10:00,sdl,28.02
2022-02-16T11:11:00,sdl,27.41
2022-02-16T11:12:00,sdl,27.32
2022-02-16T11:13:00,sdl,27.92
2022-02-16T11:14:00,sdl,26.73
2022-02-16T11:15:00,sdl,27.11
2022-02-16T11:16:00,sdl,27.27
2022-02-16T11:17:00,sdl,27.23
2022-02-16T11:18:00,sdl,23.87
2022-02-16T11:19:00,sdl,23.97
2022-02-16T11:20:00,sdl,24.33
2022-02-16T11:21:00,sdl,24.20
2022-02-16T11:22:00,sdl,25.26
2022-02-16T11:23:00,sdl,24.63
2022-02-16T11:24:00,sdl,24.06
2022-02-16T11:25:00,sdl,24.19
2022-02-16T11:26:00,sdl,24.23
2022-02-16T11:27:00,sdl,24.91
2022-02-16T11:28:00,sdl,23.93
2022-02-16T11:29:00,sdl,23.82
2022-02-16T11:30:00,sdl,23.79
2022-02-16T11:31:00,sdl,23.23
2022-02-16T11:32:00,sdl,22.92
2022-02-16T11:33:00,sdl,23.10
2022-02-16T11:34:00,sdl,23.01
2022-02-16T11:35:00,sdl,24.68
2022-02-16T11:36:00,sdl,23.95
2022-02-16T11:37:00,sdl,24.44
2022-02-16T11:38:00,sdl,23.30
2022-02-16T11:39:00,sdl,23.10
2022-02-16T11:40:00,sdl,23.24
2022-02-16T11:41:00,sdl,23.13
2022-02-16T11:42:00,sdl,23.07
2022-02-16T11:43:00,sdl,27.60
2022-02-16T11:44:00,sdl,26.23
2022-02-16T11:45:00,sdl,25.37
2022-02-16T11:46:00,sdl,25.55
2022-02-16T11:47:00,sdl,25.56
2022-02-16T11:48:00,sdl,25.55
2022-02-16T11:49:00,sdl,25.42
2022-02-16T11:50:00,sdl,27.32
2022-02-16T11:51:00,sdl,26.34
2022-02-16T11:52:00,sdl,26.02
2022-02-16T11:53:00,sdl,26.09
2022-02-16T11:54:00,sdl,26.37
2022-02-16T11:55:00,sdl,26.40
2022-02-16T11:56:00,sdl,24.25
2022-02-16T11:57:00,sdl,24.24
2022-02-16T11:58:00,sdl,24.44
2022-02-16T11:59:00,sdl,23.93
2022-02-16T12:00:00,sdl,24.45
2022-02-16T12:01:00,sdl,24.69
2022-02-16T12:02:00,sdl,24.04
2022-02-16T12:03:00,sdl,24.12
2022-02-16T12:04:00,sdl,24.80
2022-02-16T12:05:00,sdl,24.48
2022-02-16T12:06:00,sdl,24.91
2022-02-16T12:07:00,sdl,24.93
2022-02-16T12:08:00,sdl,24.13
2022-02-16T12:09:00,sdl,26.84
2022-02-16T12:10:00,sdl,26.01
2022-02-16T12:11:00,sdl,27.46
2022-02-16T12:12:00,sdl,27.25
2022-02-16T12:13:00,sdl,27.44
2022-02-16T12:14:00,sdl,27.33
2022-02-16T12:15:00,sdl,26.37
2022-02-16T12:16:00,sdl,27.39
2022-02-16T12:17:00,sdl,26.37
2022-02-16T12:18:00,sdl,26.87
2022-02-16T12:19:00,sdl,26.82
2022-02-16T12:20:00,sdl,27.30
2022-02-16T12:21:00,sdl,27.30
2022-02-16T12:22:00,sdl,27.05
2022-02-16T12:23:00,sdl,26.84
2022-02-16T12:24:00,sdl,27.02
2022-02-16T12:25:00,sdl,24.69
2022-02-16T12:26:00,sdl,23.66
2022-02-16T12:27:00,sdl,25.48
2022-02-16T12:28:00,sdl,25.96
2022-02-16T12:29:00,sdl,25.39
2022-02-16T12:30:00,sdl,23.92
2022-02-16T12:31:00,sdl,24.35
2022-02-16T12:32:00,sdl,24.26
2022-02-16T12:33:00,sdl,24.26
2022-02-16T12:34:00,sdl,24.46
2022-02-16T12:35:00,sdl,24.37
2022-02-16T12:36:00,sdl,25.31
2022-02-16T12:37:00,sdl,25.31
2022-02-16T12:38:00,sdl,24.24
2022-02-16T12:39:00,sdl,23.86
2022-02-16T12:40:00,sdl,24.48
2022-02-16T12:41:00,sdl,21.78
2022-02-16T12:42:00,sdl,16.20
2022-02-16T12:43:00,sdl,16.30
2022-02-16T12:44:00,sdl,16.30
2022-02-16T12:45:00,sdl,16.38
2022-02-16T12:46:00,sdl,16.35
2022-02-16T12:47:00,sdl,16.31
2022-02-16T12:48:00,sdl,18.57
2022-02-16T12:49:00,sdl,18.52
2022-02-16T12:50:00,sdl,18.59
2022-02-16T12:51:00,sdl,18.49
2022-02-16T12:52:00,sdl,18.17
2022-02-16T12:53:00,sdl,18.13
2022-02-16T12:54:00,sdl,18.24
2022-02-16T12:55:00,sdl,19.61
2022-02-16T12:56:00,sdl,19.54
2022-02-16T12:57:00,sdl,18.64
2022-02-16T12:58:00,sdl,19.46
2022-02-16T12:59:00,sdl,20.91
2022-02-16T13:00:00,sdl,20.55
2022-02-16T13:01:00,sdl,20.59
2022-02-16T13:02:00,sdl,19.48
2022-02-16T13:03:00,sdl,20.33
2022-02-16T13:04:00,sdl,20.25
2022-02-16T13:05:00,sdl,19.64
2022-02-16T13:06:00,sdl,19.59
2022-02-16T13:07:00,sdl,19.68
2022-02-16T13:08:00,sdl,19.22
2022-02-16T13:09:00,sdl,17.11
2022-02-16T13:10:00,sdl,17.61
2022-02-16T13:11:00,sdl,17.50
2022-02-16T13:12:00,sdl,17.56
2022-02-16T13:13:00,sdl,17.59
2022-02-16T13:14:00,sdl,17.93
2022-02-16T13:15:00,sdl,17.33
2022-02-16T13:16:00,sdl,17.37
2022-02-16T13:17:00,sdl,17.92
2022-02-16T13:18:00,sdl,17.80